Regional Weather Roundup
Issued by NWS Grand Forks, ND

Home | Current Version | Previous Version | Graphics & Text | Print | Product List | Glossary Off
Versions: 1 2 3 4 5 6 7 8 9 10 11 12 13 14 15 16 17 18 19 20 21 22 23 24 25 26 27 28 29 30 31 32 33 34 35 36 37 38 39 40 41 42 43 44 45 46 47 48 49 50

000
ASUS43 KFGF 010010
RWRFGF
PRAIRIE TO PINES  WEATHER ROUNDUP
NATIONAL WEATHER SERVICE EASTERN NORTH DAKOTA/GRAND FORKS ND
700 PM CDT FRI OCT 31 2014

 **SATELLITE DATA USED TO AUGMENT SKY COVER AT AUTOMATED STATIONS**
 *****  WEATHER ACROSS EASTERN NORTH DAKOTA  *****

CITY           SKY/WX    TMP DP  RH WIND       PRES   REMARKS
GRAND FORKS    PTCLDY    32  19  58 SE9       30.39F WCI  24
6HR MIN TEMP:  32; 6HR MAX TEMP:  39;

GRAND FRKS AFB CLEAR     30  19  64 SE10      30.38F WCI  21
GRAND FRKS NWS   N/A     32 N/A N/A S10         N/A  WCI  24
DEVILS LAKE    CLEAR     34  16  47 S18       30.27F WCI  23
6HR MIN TEMP:  34; 6HR MAX TEMP:  39;

FARGO          CLEAR     36  19  50 SE12      30.42F
WAHPETON ARPT  CLEAR     32  19  59 SE7       30.44F
$$

 ***** WEATHER ACROSS CENTRAL AND WESTERN NORTH DAKOTA  *****

CITY           SKY/WX    TMP DP  RH WIND       PRES   REMARKS
BISMARCK       PTCLDY    35  15  44 SE12      30.20F
6HR MIN TEMP:  35; 6HR MAX TEMP:  42;

MINOT          PTCLDY    37  11  34 SE17G30   30.11F
6HR MIN TEMP:  36; 6HR MAX TEMP:  41;

JAMESTOWN      CLEAR     32  18  56 SE12      30.32F WCI  23
6HR MIN TEMP:  32; 6HR MAX TEMP:  39;

MINOT AFB      PTCLDY    36  15  41 SE21      30.10F
GARRISON         N/A     37  15  40 SE18G32   30.12F
WILLISTON      CLOUDY    43  20  39 S14G22    29.98S
6HR MIN TEMP:  39; 6HR MAX TEMP:  49;

DICKINSON      PTCLDY    39  16  39 S25G37    30.01F
6HR MIN TEMP:  37; 6HR MAX TEMP:  45;

HETTINGER      PTCLDY    39  15  37 SE15G30   30.06S
6HR MIN TEMP:  36; 6HR MAX TEMP:  44;

$$

 *****  OTHER AIRPORT OBSERVATIONS IN OUR AREA  *****

CITY           SKY/WX    TMP DP  RH WIND       PRES   REMARKS
WALHALLA         N/A     36  18  48 SE14      30.33F
GRAFTON AIRPOR FAIR      32  19  59 S10       30.38F WCI  24
VALLEY CITY AR MOCLDY    32  21  64 SE10      30.36S WCI  24
CANDO          FAIR      32  18  55 SE18G24   30.25F WCI  20
CAVALIER APRT  FAIR      36  19  51 S12G17    30.34F
GWINNER        CLEAR     32  23  69 SE9       30.40F WCI  24
SHEYENNE NWR     N/A     29  19  65 SE7       29.95S WCI  22
ROLLA          FAIR      32  14  47 S15G22    30.22F WCI  22
 ***** THE ABOVE OBSERVATIONS ARE NON NWS ARE NOT QUALITY
       CONTROLLED AND MAY MIS-REPORT RAIN FOR SNOW...
$$

  *****  WEATHER ACROSS NORTHERN MINNESOTA  *****

CITY           SKY/WX    TMP DP  RH WIND       PRES   REMARKS
FLAG ISLAND    CLEAR     36  25  64 SE10      30.41F
WARROAD        CLEAR     30  21  69 SE5       30.42F
ROSEAU         CLEAR     28  21  74 S6        30.42S WCI  22
HALLOCK        PTCLDY    30  19  64 SE12      30.38F WCI  21
THF RVR FALLS  PTCLDY    32  19  59 SE6       30.41F
6HR MIN TEMP:  32; 6HR MAX TEMP:  37;

BAUDETTE       CLEAR     30  17  58 S5        30.44S
6HR MIN TEMP:  30; 6HR MAX TEMP:  38;

WASKISH        CLEAR     27  21  80 CALM      30.45F
CROOKSTON      PTCLDY    28  19  69 S9        30.42F WCI  20
STEPHEN NDAWN    N/A     30  18  59 SE8         N/A  WCI  23
GREENBUSH NDAW   N/A     27  19  74 SE5         N/A  WCI  21
$$
  *****  WEATHER ACROSS CENTRAL AND WEST MINNESOTA  *****

CITY           SKY/WX    TMP DP  RH WIND       PRES   REMARKS
FOSSTON        FAIR      30  23  74 SE5       30.43S
BEMIDJI        CLEAR     28  16  59 SE6       30.44S WCI  22
PARK RAPIDS    CLEAR     32  14  47 S5        30.44F
6HR MIN TEMP:  32; 6HR MAX TEMP:  38;

ELBOW LAKE     FAIR      29  22  75 S7        30.44F WCI  22
6HR MIN TEMP:  29; 6HR MAX TEMP:  37;

WADENA         CLEAR     28  18  64 SE3       30.45S
DETROIT LAKES  CLEAR     32  21  64 SE7       30.44S
MOORHEAD       CLEAR     34  21  60 S7        30.44S
FERGUS FALLS   CLEAR     28  18  64 S5        30.46F WCI  23
MORRIS MN      NOT AVBL
STAPLES        CLEAR     28  14  54 CALM      30.46S
$$
  *****  WEATHER ELSEWHERE ACROSS MINNESOTA  *****

CITY           SKY/WX    TMP DP  RH WIND       PRES   REMARKS
DULUTH         CLEAR     32  13  45 CALM      30.45F
6HR MIN TEMP:  32; 6HR MAX TEMP:  38;

INTRNTL FALLS  CLEAR     23  17  78 CALM      30.46S
6HR MIN TEMP:  23; 6HR MAX TEMP:  37;

ELY            CLEAR     27  19  74 CALM      30.46S
CLOQUET        CLEAR     28  16  59 CALM      30.47S
WHEATON        CLEAR     28  19  69 SE8       30.46F WCI  20
BRAINERD       CLEAR     28  16  60 CALM      30.47F
6HR MIN TEMP:  28; 6HR MAX TEMP:  38;

HIBBING        CLEAR     25  16  68 CALM      30.47R
6HR MIN TEMP:  25; 6HR MAX TEMP:  39;

ALEXANDRIA     CLEAR     32  15  49 SE5       30.46F
6HR MIN TEMP:  31; 6HR MAX TEMP:  39;

SAINT CLOUD    CLEAR     33  15  47 CALM      30.48S
6HR MIN TEMP:  33; 6HR MAX TEMP:  42;

MINNEAPOLIS    CLEAR     34  15  46 N6        30.50S
6HR MIN TEMP:  34; 6HR MAX TEMP:  40;

$$

  *****  WEATHER ACROSS SOUTH DAKOTA  *****

CITY           SKY/WX    TMP DP  RH WIND       PRES   REMARKS
SIOUX FALLS    PTCLDY    34  16  47 SE7       30.44F
6HR MIN TEMP:  34; 6HR MAX TEMP:  41;

BROOKINGS      NOT AVBL
WATERTOWN      CLEAR     32  18  56 SE7       30.40F
6HR MIN TEMP:  31; 6HR MAX TEMP:  39;

HURON          PTCLDY    35  17  47 SE7       30.39F
6HR MIN TEMP:  35; 6HR MAX TEMP:  40;

SISSETON         N/A     30  21  69 S7        30.42F WCI  23
ABERDEEN       PTCLDY    28  16  60 S8        30.38F WCI  20
6HR MIN TEMP:  28; 6HR MAX TEMP:  41;

MITCHELL       PTCLDY    35  18  49 SE8       30.41F
PIERRE         PTCLDY    39  12  33 SE21      30.24F
6HR MIN TEMP:  36; 6HR MAX TEMP:  44;

MOBRIDGE       CLEAR     39  12  33 SE24      30.21F
RAPID CITY     PTCLDY    47  29  49 S20G28    30.05S
6HR MIN TEMP:  40; 6HR MAX TEMP:  53;

$$

  *****  SOME WEATHER IN NEARBY STATES *****

CITY           SKY/WX    TMP DP  RH WIND       PRES   REMARKS
GLASGOW MT     PTCLDY    48  33  56 E15       29.79F
6HR MIN TEMP:  45; 6HR MAX TEMP:  55;

GREAT FALLS MT PTCLDY    59  33  37 SW7       29.72R
6HR MIN TEMP:  59; 6HR MAX TEMP:  72;

CHEYENNE WY    PTCLDY    46  29  51 S12       30.13S
6HR MIN TEMP:  42; 6HR MAX TEMP:  52;

SCOTTSBLUFF NE CLEAR     49  31  49 SE17      30.10F
6HR MIN TEMP:  45; 6HR MAX TEMP:  57;

OMAHA NE       PTCLDY    40  19  43 NE6       30.48S
6HR MIN TEMP:  39; 6HR MAX TEMP:  45;

DES MOINES IA  PTCLDY    38  17  42 N6        30.46S
6HR MIN TEMP:  38; 6HR MAX TEMP:  44;

DAVENPORT IA   CLEAR     34  17  50 N9        30.41R
6HR MIN TEMP:  33; 6HR MAX TEMP:  44;

CHICAGO IL     CLOUDY    37  19  48 N25G35    30.30R
6HR MIN TEMP:  37; 6HR MAX TEMP:  41;

EAU CLAIRE WI  CLEAR     31  17  56 N5        30.48R
6HR MIN TEMP:  31; 6HR MAX TEMP:  41;

LA CROSSE WI   CLEAR     36  20  52 N8        30.46R
6HR MIN TEMP:  36; 6HR MAX TEMP:  44;

$$

  *****  SOME NATIONAL WEATHER *****

CITY           SKY/WX    TMP DP  RH WIND       PRES   REMARKS
LA GUARDIA NY  CLOUDY    55  43  63 NE16      29.89F
6HR MIN TEMP:  53; 6HR MAX TEMP:  55;

RALEIGH NC     CLOUDY    53  44  71 NE5       29.81F
6HR MIN TEMP:  53; 6HR MAX TEMP:  62;

ATLANTA GA     MOCLDY    54  45  71 W10G22    29.91R
6HR MIN TEMP:  54; 6HR MAX TEMP:  62; 6HR PCP: TRACE;

NEW ORLEANS LA PTCLDY    69  46  43 N17G26    30.08R
6HR MIN TEMP:  69; 6HR MAX TEMP:  76;

OKLAHOMA CITY  PTCLDY    52  24  33 NE9       30.38S
6HR MIN TEMP:  52; 6HR MAX TEMP:  60;

ALBUQUERQUE NM PTCLDY    67  34  29 S17       30.21F
6HR MIN TEMP:  61; 6HR MAX TEMP:  70;

SALT LAKE CITY MOCLDY    73  22  14 S15G22    29.82F
6HR MIN TEMP:  68; 6HR MAX TEMP:  77;




USA.gov is the U.S. government's official web portal to all federal, state and local government web resources and services.